Home > Weather > Maracay > Past weeks

Flag for Venezuela Past Weather in Maracay, Venezuela — Yesterday and Last 2 Weeks

Now
70 °F

Scattered clouds.


Feels Like: 70 °F
Forecast: 68 / 88 °F
Wind: 5 mph from Southwest

Location: Valencia Airport

Current Time: Jul 29, 2016 at 8:11:47 AM

Latest Report: Jul 29, 2016 at 7:00 AM


Visibility: N/A

Pressure: 30.01 "Hg

Humidity: 100%

Dew Point: 70 °F

Location of MaracayLocation

Past Weather in Maracay — Graph

°F

Maracay Temperature Yesterday

Maximum temperature yesterday: 88 °F (at 1:00 PM)
Minimum temperature yesterday: 70 °F (at 7:00 AM)
Average temperature yesterday: 80 °F

High & Low Weather Summary for the Past Weeks

 TemperatureHumidityPressure
High91 °F (Jul 22, 1:00 PM)100% (Jul 16, 7:00 AM)30.09 "Hg (Jul 16, 7:00 AM)
Low70 °F (Jul 22, 7:00 AM)51% (Jul 18, 5:00 AM)29.86 "Hg (Jul 15, 4:00 PM)
Average80 °F83%29.98 "Hg
* Reported Jul 14 10:00 AM — Jul 29 7:00 AM, Maracay, Weather by CustomWeather, © 2016

Note: Actual official high and low records may vary slightly from our data, if they occured in-between our weather recording intervals... More about our weather records

Advertising

Maracay Weather History for the Previous 24 Hours

Scroll right to see more
 ConditionsComfort  
Time TempWeatherWind HumidityBarometerVisibility
7:00 AM
Fri, Jul 29
70 °FScattered clouds.5 mph100%30.01 "HgN/A
2:00 AM72 °FPassing clouds.3 mph100%29.98 "HgN/A
11:00 PM
Thu, Jul 28
73 °FHeavy rain. Passing clouds.8 mph100%30.01 "Hg1 mi
10:00 PM75 °FPassing clouds.6 mph100%29.98 "Hg6 mi
9:00 PM77 °FThundershowers. Passing clouds.5 mph89%29.98 "HgN/A
8:00 PM77 °FThundershowers. Passing clouds.7 mph94%29.95 "HgN/A
7:00 PM77 °FPassing clouds.5 mph89%29.95 "HgN/A
6:00 PM81 °FPartly sunny.6 mph79%29.92 "HgN/A
5:00 PM81 °FPartly sunny.6 mph79%29.92 "HgN/A
4:00 PM82 °FPartly sunny.7 mph79%29.92 "HgN/A
3:00 PM86 °FScattered clouds.7 mph66%29.92 "HgN/A
2:00 PM84 °FScattered clouds.7 mph70%29.95 "HgN/A
1:00 PM88 °FPartly sunny.7 mph66%29.98 "HgN/A
12:00 PM86 °FPartly sunny.7 mph59%30.01 "HgN/A
11:00 AM84 °FPartly sunny.6 mph74%30.01 "HgN/A
9:00 AM79 °FPartly sunny.No wind84%30.01 "HgN/A
8:00 AM73 °FOvercast.No wind100%29.98 "HgN/A
Weather by CustomWeather, © 2016

See weather overviewHow to use our weather pages